This demonstration page uses our WeatherBlox Daily Observations layout. Learn more.

38.88101, -77.10428

Hourly Observations for March 18, 2018

Temp ( °F °C ) Dew Point ( °F °C ) Humidity (%) Winds ( mph kmh ) Pressure ( in mb ) Visibility ( mi km ) Precip ( " mm )
12:52 am 00:52 Mostly Cloudy 40 4.4 32 0 73 73 N 5 7 29.87 1012 10 16.0934 0 0
1:52 am 01:52 Partly Cloudy 40 4.4 29 -1.7 65 65 N 8 13 29.88 1012 10 16.0934 0 0
2:52 am 02:52 Partly Cloudy 39 3.9 27 -2.8 62 62 N 9 15 29.9 1013 10 16.0934 0 0
3:52 am 03:52 Mostly Clear 37 2.8 25 -3.9 62 62 NNW 12 19 29.9 1012 10 16.0934 0 0
4:52 am 04:52 Mostly Clear 36 2.2 22 -5.6 57 57 NNW 8 13 29.91 1013 10 16.0934 0 0
5:52 am 05:52 Mostly Clear 35 1.7 21 -6.1 57 57 NNW 6 9 29.93 1014 10 16.0934 0 0
6:52 am 06:52 Mostly Clear 34 1.1 19 -7.2 54 54 N 7 11 29.96 1015 10 16.0934 0 0
7:52 am 07:52 Sunny 36 2.2 19 -7.2 50 50 NNW 7 11 29.98 1015 10 16.0934 0 0
8:52 am 08:52 Sunny 39 3.9 19 -7.2 45 45 NNW 12 19 30.01 1016 10 16.0934 0 0
9:52 am 09:52 Sunny 43 6.1 20 -6.7 40 40 NNW 10 17 30.02 1017 10 16.0934 0 0
10:52 am 10:52 Sunny 46 7.8 18 -7.8 32 32 WNW 7 11 30.03 1017 10 16.0934 0 0
11:52 am 11:52 Sunny 49 9.4 17 -8.3 28 28 N 9 15 30.02 1017 10 16.0934 0 0
12:52 pm 12:52 Sunny 52 11.1 19 -7.2 27 27 VRB 5 7 30.01 1016 10 16.0934 0 0
1:52 pm 13:52 Sunny 53 11.7 18 -7.8 25 25 W 8 13 29.98 1015 10 16.0934 0 0
2:52 pm 14:52 Sunny 57 13.9 19 -7.2 23 23 NW 7 11 29.96 1015 10 16.0934 0 0
3:52 pm 15:52 Sunny 57 13.9 17 -8.3 21 21 NW 10 17 29.94 1014 10 16.0934 0 0
4:52 pm 16:52 Sunny 58 14.4 17 -8.3 20 20 WNW 9 15 29.93 1014 10 16.0934 0 0
5:52 pm 17:52 Sunny 58 14.4 18 -7.8 21 21 VRB 3 6 29.92 1013 10 16.0934 0 0
6:52 pm 18:52 Mostly Sunny 56 13.3 17 -8.3 22 22 NW 3 6 29.92 1013 10 16.0934 0 0
7:52 pm 19:52 Mostly Clear 51 10.6 24 -4.4 35 35 S 5 7 29.91 1013 10 16.0934 0 0
8:52 pm 20:52 Clear 51 10.6 22 -5.6 32 32 S 6 9 29.92 1013 10 16.0934 0 0
9:52 pm 21:52 Clear 47 8.3 32 0 56 56 SE 3 6 29.92 1013 10 16.0934 0 0
10:52 pm 22:52 Partly Cloudy 47 8.3 23 -5 39 39 S 3 6 29.93 1014 10 16.0934 0 0
11:52 pm 23:52 Partly Cloudy 44 6.7 28 -2.2 53 53 Calm 29.93 1014 10 16.0934 0 0

Powered by AerisWeather